Temperature
18 18 18 18 18 18 18 18 17 17 17 17 17 17 17 17 17 17 17 17 17 17 17 17 16 16 16 16 16 16 16 16 15 15 15 15 15 15
18 18 18 18 18 17 17 17 17 17 17 17 17 17 17 17 16 17 17 17 16 17 17 17 16 16 16 16 16 16 16 16 15 15 15 15 15 15
17 17 17 17 17 17 17 17 17 17 17 17 17 17 17 17 16 16 16 16 16 16 16 16 16 16 16 16 16 16 15 15 15 15 15 15 15 15
17 17 17 17 17 17 17 17 17 17 17 17 17 17 16 16 16 16 16 16 16 16 16 16 16 16 16 16 15 15 15 15 15 15 15 15 15 15
17 17 17 16 16 16 16 16 16 16 16 16 16 16 16 16 16 16 16 16 16 16 16 16 16 16 16 15 15 15 15 15 15 15 15 15 15 15
16 16 16 16 16 16 16 16 16 15 16 16 16 16 16 15 15 15 16 16 15 15 15 15 15 15 15 15 15 15 15 15 15 15 15 15 14 14
16 16 16 16 16 15 15 15 15 15 15 15 15 15 15 15 15 15 15 15 15 15 15 15 15 15 15 15 15 15 15 15 15 15 14 14 14 14
16 16 15 15 15 15 15 15 15 15 15 15 15 15 15 15 15 15 14 14 15 15 15 15 15 15 15 15 15 15 15 15 15 15 14 14 14 14
15 15 15 15 15 15 15 15 15 14 14 14 14 14 14 14 14 14 14 14 14 14 14 14 15 15 15 15 15 15 14 14 14 14 14 14 14 14
15 15 15 15 15 14 14 14 14 14 14 14 14 14 14 14 14 14 14 14 14 14 14 14 14 14 15 14 14 14 14 14 14 14 14 14 14 14
14 14 14 14 14 14 14 14 14 14 14 14 14 14 14 14 14 14 14 13 14 14 14 13 14 14 14 14 14 14 14 14 14 14 13 13 13 13
14 14 14 14 14 14 14 14 14 14 14 14 14 14 13 13 13 13 13 13 13 13 13 13 13 13 13 14 14 14 14 14 14 13 13 13 13 13
14 14 14 14 14 14 13 13 13 13 13 13 13 13 13 13 13 13 13 13 13 13 13 13 13 13 13 13 13 13 13 13 13 13 13 13 13 13
14 14 13 13 13 13 13 13 13 13 13 13 13 13 13 13 13 13 13 13 13 13 12 12 12 12 12 12 13 13 13 13 13 13 13 13 13 12
13 13 13 13 13 13 13 13 13 13 13 12 12 12 12 12 12 12 12 12 12 12 12 12 12 12 12 12 12 12 12 12 12 12 12 12 12 12
13 13 13 13 13 13 12 12 12 12 12 12 12 12 12 12 12 12 12 12 12 12 12 12 12 12 12 12 12 12 12 12 12 12 12 12 12 12
12 12 12 12 12 12 12 12 12 12 12 11 11 11 11 11 11 11 11 11 11 11 11 11 11 11 11 11 11 11 11 11 12 12 11 11 12 11
12 12 12 12 11 11 11 11 11 11 11 11 11 11 11 11 10 10 10 10 10 10 10 10 11 11 11 11 11 11 11 11 11 11 11 11 11 11
12 12 11 11 11 11 11 10 10 10 10 10 10 10 10 10 10 10 10 10 10 10 10 10 10 10 10 10 10 10 10 10 10 10 10 10 10 11
11 11 11 10 10 10 10 10 10 10 10 10 9 9 9 9 9 9 9 9 9 9 9 9 9 9 9 9 10 10 10 10 10 10 10 10 10 10
11 10 10 10 10 10 9 9 9 9 9 9 9 9 9 9 9 8 8 8 8 8 8 9 9 9 9 9 9 9 10 10 9 9 9 10 9 9
10 10 10 10 9 9 9 9 9 9 9 9 8 8 8 8 8 8 8 8 8 8 8 8 8 8 8 8 9 9 9 9 9 9 9 9 9 9
10 9 9 9 9 9 8 8 8 8 8 8 8 8 8 8 8 8 7 8 8 8 8 8 8 8 8 8 8 8 8 8 8 9 9 9 8 8
Wind_Speed
1 1 1 1 1 1 2 3 3 2 2 3 2 2 2 4 5 5 6 8 10 10 10 10 10 11 10 10 10 9 9 9 9 9 9 9 9 9
1 1 1 1 1 1 1 1 2 3 3 3 3 2 2 3 5 6 7 8 10 10 10 10 11 11 11 11 11 11 11 11 10 10 9 9 9 10
2 1 2 1 1 1 1 1 1 2 3 3 2 1 0 2 2 3 5 6 7 10 11 11 11 11 12 12 12 12 12 12 12 11 10 10 10 10
2 1 2 2 1 1 1 1 1 2 3 3 2 1 2 2 2 2 3 5 6 9 11 12 12 12 12 13 13 12 13 13 12 12 11 11 10 11
2 2 2 1 2 1 1 1 1 1 1 2 3 2 2 1 1 2 2 2 5 6 9 11 12 12 12 13 12 12 13 13 13 13 12 12 11 11
1 2 2 2 2 2 2 2 1 1 1 1 2 2 2 1 0 1 2 2 3 3 4 6 9 11 12 13 14 14 13 14 14 14 13 13 13 12
2 2 3 3 3 3 2 2 2 2 1 1 2 2 2 1 2 2 3 3 4 2 2 3 4 5 7 10 12 14 14 14 14 14 13 12 12 12
3 3 3 3 3 3 4 4 4 3 3 3 3 3 4 3 2 2 2 2 3 2 2 4 3 5 6 7 11 13 13 13 13 13 13 12 12 12
3 2 2 2 2 2 3 4 3 4 5 5 4 5 5 4 3 3 3 3 5 4 2 4 3 5 6 8 11 12 13 13 12 12 12 12 12 12
2 2 2 2 2 2 2 2 3 4 5 5 6 6 6 5 5 5 5 4 4 4 3 4 4 4 5 5 9 11 12 12 12 12 12 12 12 12
2 2 2 2 3 3 2 3 4 5 6 6 6 7 8 8 6 3 2 2 4 4 3 3 3 3 3 4 6 10 12 12 11 11 11 11 11 10
2 2 3 3 3 2 2 2 4 5 4 4 5 6 5 6 6 5 5 3 3 4 3 3 2 1 3 3 3 3 6 9 11 11 11 11 10 7
2 2 2 3 4 4 2 3 5 5 3 3 3 4 3 3 3 4 4 4 4 5 4 2 2 2 2 3 3 3 3 3 4 6 10 11 11 9
2 2 3 4 4 4 3 4 5 3 2 2 2 3 3 4 4 4 4 5 5 6 5 3 3 3 2 3 3 3 3 3 3 4 4 7 9 11
2 2 3 3 3 3 4 5 3 1 1 1 3 4 4 4 3 3 3 4 4 5 5 4 4 3 3 4 3 3 2 3 3 3 4 4 5 5
2 3 4 4 3 3 4 3 1 1 1 2 3 4 3 3 3 2 3 2 2 4 5 5 5 4 3 4 3 3 3 3 3 4 4 4 5 6
0 1 2 2 2 2 2 2 2 2 2 2 2 3 3 3 3 3 2 2 2 3 4 3 3 4 4 4 3 4 4 4 4 4 4 4 5 6
3 1 1 1 1 2 2 2 2 2 2 2 2 2 3 3 3 3 2 1 2 3 4 3 2 2 2 3 3 4 3 4 3 3 3 4 5 5
2 1 1 1 1 1 2 2 2 2 1 1 1 2 2 2 2 2 2 2 3 3 3 2 1 1 3 5 4 3 3 3 2 2 3 4 5 5
0 1 1 1 1 1 1 1 2 2 2 1 1 2 2 2 2 2 2 2 3 3 3 3 2 3 5 5 4 3 3 3 3 3 3 2 1 2
1 1 1 1 1 1 1 1 1 1 1 1 1 2 2 2 2 3 3 4 3 3 4 5 6 6 4 1 1 3 3 3 3 3 3 2 1 1
1 1 1 1 1 1 1 1 1 1 1 2 2 2 2 2 3 4 4 3 3 4 5 5 4 2 1 2 4 4 3 3 3 2 1 3 3 4
1 1 1 1 1 1 1 2 2 2 2 2 2 3 3 3 3 4 4 4 4 4 4 4 3 2 2 3 3 3 3 2 1 1 2 4 3 4
Wind_Direction
225 236 238 266 247 215 175 168 169 218 274 270 272 268 214 201 208 200 205 211 214 214 213 212 215 216 215 215 218 219 222 224 227 229 230 232 236 241
225 215 265 269 247 218 190 185 175 182 228 253 245 248 224 212 219 205 209 215 214 217 217 217 219 221 221 222 223 223 223 225 227 227 230 233 235 240
275 233 254 256 251 251 203 183 203 179 220 272 264 273 235 241 220 214 220 220 224 224 225 222 222 225 224 226 227 227 227 228 230 230 232 234 236 237
271 267 271 273 266 246 215 226 227 207 199 252 279 262 240 239 226 225 231 230 230 236 230 227 228 230 230 231 231 233 233 231 232 234 236 237 238 237
243 239 256 255 264 262 251 254 261 254 202 218 258 252 263 274 283 272 258 258 247 245 234 233 234 236 238 237 236 237 237 234 234 236 237 238 237 236
235 226 238 230 233 236 244 250 254 268 241 234 259 262 262 280 224 272 286 270 259 250 243 239 240 242 244 243 242 241 241 239 236 237 238 237 237 236
258 248 243 234 226 222 226 220 213 219 226 240 261 272 268 265 249 250 259 273 264 243 244 251 244 247 248 249 247 245 242 242 239 237 236 235 235 235
253 260 254 239 246 250 247 229 205 205 210 221 240 242 248 239 237 240 244 271 280 261 218 259 229 247 247 242 246 242 240 239 238 236 233 232 232 234
249 258 268 257 233 256 263 266 260 243 213 204 223 235 237 231 225 240 236 237 248 247 206 260 247 249 251 249 247 244 239 238 235 232 231 229 228 229
250 231 237 266 275 247 247 279 281 274 254 229 225 235 238 229 215 221 231 245 263 259 198 238 253 249 258 252 250 243 240 237 233 232 233 230 228 227
274 258 248 253 277 257 240 271 289 290 279 262 253 257 262 252 230 210 232 244 274 273 221 211 249 261 265 260 255 244 238 234 232 232 232 229 224 222
298 290 264 260 274 260 227 247 273 279 288 296 290 290 279 273 253 219 212 220 245 266 243 203 235 230 281 274 260 253 241 241 237 236 234 231 224 213
270 285 286 297 295 293 268 241 252 264 278 277 282 285 286 284 276 245 218 208 220 244 245 195 216 213 227 272 286 257 231 233 230 235 234 232 224 209
255 278 293 314 319 309 292 280 279 280 277 282 287 286 278 278 275 262 240 231 228 234 238 200 206 211 218 248 268 275 257 241 224 230 231 232 227 223
276 289 309 318 328 323 307 303 305 286 279 282 277 275 269 268 274 279 271 255 258 261 258 224 218 218 207 223 242 249 261 254 224 226 229 223 215 208
301 317 326 333 334 319 318 318 310 267 228 256 276 284 293 299 293 281 273 276 278 285 279 255 228 212 224 233 225 242 240 240 231 226 223 226 218 211
273 13 10 359 350 344 330 323 323 335 314 297 292 297 300 302 297 297 286 276 263 281 294 299 272 241 228 219 237 245 246 252 240 221 213 224 225 217
98 77 309 307 310 305 306 316 316 305 296 296 301 302 309 310 313 321 323 306 292 285 282 284 307 328 330 289 237 240 248 250 248 219 209 221 239 229
103 240 260 269 278 293 304 308 305 301 297 315 321 321 325 321 321 324 332 324 304 294 291 285 270 246 267 277 279 238 233 255 249 228 222 224 236 236
230 269 284 294 298 309 320 318 323 338 343 335 323 325 318 312 315 316 308 295 290 292 298 297 276 253 246 251 256 273 260 243 237 234 237 246 266 280
317 312 297 299 303 311 315 313 316 323 322 314 310 307 299 298 300 297 292 292 287 290 290 285 276 274 264 253 271 283 285 273 240 229 215 217 245 241
317 327 314 302 298 308 309 305 301 296 295 296 301 302 300 291 287 287 284 284 281 276 277 282 293 309 290 256 260 263 278 300 325 330 237 205 200 208
275 288 298 305 302 291 286 289 292 293 286 287 289 291 297 298 293 284 281 280 284 287 289 291 301 302 275 258 257 263 264 264 273 342 330 326 292 250
Height
1518 1518 1518 1518 1518 1518 1518 1518 1518 1517 1516 1516 1516 1516 1516 1516 1515 1515 1514 1514 1514 1514 1514 1514 1514 1514 1515 1515 1515 1515 1515 1516 1516 1516 1517 1517 1518 1518
1516 1516 1516 1516 1516 1516 1516 1516 1516 1515 1514 1514 1514 1514 1514 1514 1513 1513 1513 1513 1512 1512 1512 1512 1512 1512 1512 1512 1512 1512 1513 1513 1513 1514 1514 1514 1515 1515
1514 1514 1514 1514 1513 1513 1513 1513 1513 1513 1512 1511 1512 1512 1511 1511 1511 1511 1511 1510 1510 1510 1510 1510 1510 1510 1510 1510 1510 1510 1510 1510 1510 1510 1511 1511 1511 1512
1511 1511 1511 1511 1511 1511 1510 1510 1510 1510 1510 1509 1509 1509 1508 1508 1508 1508 1508 1508 1508 1507 1507 1507 1507 1507 1507 1507 1507 1507 1507 1507 1507 1507 1508 1508 1508 1508
1508 1508 1508 1508 1508 1507 1507 1507 1507 1507 1507 1506 1506 1506 1506 1506 1505 1505 1505 1505 1505 1504 1504 1504 1504 1504 1504 1504 1503 1503 1503 1504 1504 1504 1504 1504 1504 1505
1505 1505 1505 1505 1505 1504 1504 1504 1504 1504 1504 1504 1503 1503 1503 1503 1502 1502 1502 1502 1502 1501 1501 1501 1501 1500 1500 1500 1500 1500 1500 1500 1500 1500 1500 1500 1500 1501
1502 1502 1502 1502 1502 1502 1502 1501 1501 1501 1501 1501 1500 1500 1499 1499 1499 1499 1498 1498 1498 1498 1497 1497 1497 1497 1496 1496 1496 1495 1495 1495 1495 1495 1496 1496 1496 1496
1499 1499 1499 1499 1499 1499 1498 1498 1498 1498 1497 1497 1497 1496 1496 1496 1496 1496 1496 1495 1494 1495 1493 1493 1493 1492 1492 1492 1491 1491 1491 1491 1491 1491 1491 1491 1492 1492
1497 1496 1496 1496 1496 1495 1495 1495 1495 1494 1494 1494 1493 1493 1492 1493 1493 1492 1492 1492 1491 1491 1490 1488 1488 1488 1488 1487 1487 1487 1487 1486 1486 1486 1486 1487 1487 1488
1494 1493 1493 1493 1493 1492 1492 1491 1490 1490 1490 1490 1490 1489 1489 1489 1489 1489 1488 1488 1487 1487 1486 1484 1484 1483 1483 1483 1483 1483 1482 1482 1482 1482 1482 1482 1482 1483
1491 1490 1490 1489 1489 1489 1488 1487 1487 1486 1486 1486 1486 1486 1485 1485 1485 1485 1484 1483 1482 1482 1482 1481 1479 1479 1478 1478 1478 1478 1478 1478 1478 1478 1478 1478 1478 1479
1487 1487 1487 1486 1486 1485 1485 1484 1483 1483 1483 1482 1482 1482 1481 1481 1481 1480 1480 1479 1478 1478 1478 1477 1475 1475 1474 1473 1474 1474 1473 1473 1473 1474 1474 1474 1474 1475
1484 1484 1484 1483 1483 1482 1481 1480 1480 1479 1479 1478 1478 1477 1477 1477 1477 1476 1476 1475 1474 1473 1474 1473 1471 1471 1470 1469 1469 1469 1469 1469 1469 1469 1469 1470 1470 1470
1481 1481 1481 1480 1480 1479 1478 1477 1477 1476 1475 1474 1474 1473 1473 1473 1472 1472 1472 1471 1470 1470 1469 1469 1467 1467 1466 1465 1464 1464 1465 1465 1465 1465 1465 1465 1465 1465
1479 1479 1478 1478 1477 1476 1475 1474 1473 1472 1471 1471 1470 1469 1469 1469 1468 1467 1466 1466 1466 1465 1465 1464 1463 1462 1462 1461 1460 1459 1459 1459 1460 1460 1460 1460 1460 1460
1477 1476 1475 1475 1474 1473 1472 1471 1470 1470 1469 1468 1467 1466 1465 1464 1463 1462 1461 1461 1460 1459 1459 1459 1458 1458 1457 1456 1456 1455 1454 1454 1454 1454 1454 1454 1455 1455
1474 1473 1472 1471 1470 1470 1469 1468 1467 1467 1466 1465 1463 1462 1461 1460 1459 1458 1457 1456 1455 1454 1453 1453 1453 1453 1452 1452 1450 1450 1449 1449 1449 1448 1448 1448 1449 1450
1472 1470 1470 1469 1468 1467 1466 1465 1465 1463 1462 1461 1460 1458 1457 1455 1454 1453 1452 1451 1450 1449 1449 1448 1448 1447 1447 1446 1447 1445 1444 1444 1444 1443 1443 1443 1443 1444
1469 1468 1467 1466 1465 1464 1463 1462 1462 1461 1459 1458 1456 1455 1453 1452 1450 1449 1448 1447 1446 1445 1444 1444 1443 1443 1442 1441 1441 1441 1440 1439 1439 1438 1438 1438 1438 1438
1467 1466 1465 1464 1463 1462 1461 1460 1459 1457 1456 1454 1453 1451 1450 1448 1447 1445 1444 1443 1442 1440 1440 1439 1439 1438 1438 1437 1436 1436 1435 1434 1434 1433 1433 1433 1433 1434
1465 1464 1463 1462 1461 1460 1458 1457 1456 1454 1452 1451 1449 1448 1446 1445 1443 1441 1440 1439 1438 1436 1435 1434 1434 1434 1433 1433 1432 1430 1430 1430 1429 1429 1428 1428 1428 1428
1463 1462 1461 1460 1459 1457 1456 1454 1453 1451 1449 1447 1446 1444 1443 1441 1440 1438 1437 1435 1433 1432 1431 1430 1429 1429 1428 1427 1426 1425 1425 1425 1424 1424 1424 1424 1424 1423
1462 1461 1460 1458 1457 1455 1453 1451 1449 1447 1445 1444 1442 1441 1440 1438 1436 1435 1433 1432 1430 1428 1427 1426 1425 1424 1424 1423 1422 1421 1420 1420 1420 1420 1420 1420 1420 1420